{"data":{"norad_id":65883,"epoch":"2026-09-20T22:46:12.990144Z","epoch_age_seconds":67293,"freshness":"FRESH","line1":"1 65883U 25224B   26263.94876146  .00019071  00000+0  57429-3 0  9996","line2":"2 65883  53.1580 179.8359 0001341  84.1867 275.9288 15.34390231 54785","mean_motion":15.34390231,"eccentricity":0.0001341,"inclination_deg":53.158,"raan_deg":179.8359,"arg_perigee_deg":84.1867,"mean_anomaly_deg":275.9288,"bstar":0.00057429,"rev_number":5478,"period_min":93.848355581716,"perigee_km":461.81491531798,"apogee_km":463.64963645777,"semimajor_km":6840.8692758879,"source":"CELESTRAK","updated_at":"2026-09-21T09:00:35.754834Z"}}